sat.trackr.live / text

‹ back to catalog

KEPLER-21

NORAD 56218 · 2023-054AS

PAYLOAD ACTIVE UNKNOWN

§ Identity

Operator
Country
CA
Launch date
2023-04-15
Launch site
AFWTR
Launch vehicle
Mass (kg)
RCS (m²)

External: N2YO · Heavens-Above · Gunter

§ Orbital elements

Epoch: 2026-07-09T16:13:07.229568Z

Period
87.80 min
Inclination
97.2713°
Eccentricity
0.0009463
Mean motion
16.40084651 rev/d
Perigee alt
159.4 km
Apogee alt
171.8 km
Semi-major
6,543.7 km
B*
4.4112e-4
RAAN
113.1846°
Arg perigee
220.6541°
Mean anomaly
139.4053°
Rev number
18,284

§ Raw data

KEPLER-211 56218U 23054AS  26190.67577812  .05573141  25021-5  44112-3 0  99932 56218  97.2713 113.1846 0009463 220.6541 139.4053 16.40084651182842

JSON: /api/v1/satellites/56218 · /tle

For live sub-satellite position, see the globe view (requires WebGL).

§ Visibility from observer

Set your observer location to see the next 7 days of passes ≥ 10°. The values pass through the URL so the page stays shareable.

No JS? Fill the form by hand. The geolocation button needs JavaScript.